CW9363 Weather Reports


Display with metric or nautical units.
time (UTC)temp
F
wind
direction
speed
MPH
gust
MPH
rain 1hr
in
rain 24hr
in
rain mn
in
humidity
%
barometer
mb
20260505125001 50 81 0.0 0.0 0.00 0.00 0.00 94 1017.0
20260505124458 50 81 0.0 1.0 0.00 0.00 0.00 94 1017.0
20260505123954 50 60 0.0 2.0 0.00 0.00 0.00 94 1017.1
20260505123450 50 29 0.0 0.0 0.00 0.00 0.00 93 1017.0
20260505122946 50 29 0.0 2.0 0.00 0.00 0.00 93 1016.8
20260505122443 50 35 0.0 1.0 0.00 0.00 0.00 94 1017.0
20260505121940 50 81 0.0 1.0 0.00 0.00 0.00 94 1016.9
20260505121437 49 74 0.0 2.0 0.00 0.00 0.00 93 1016.8
20260505120933 49 81 0.0 0.0 0.00 0.00 0.00 93 1016.8
20260505120430 49 81 0.0 1.0 0.00 0.00 0.00 93 1016.8
20260505115928 49 90 0.0 1.0 0.00 0.00 0.00 94 1016.8
20260505115425 49 90 0.0 1.0 0.00 0.00 0.00 94 1016.8
20260505114923 48 81 0.0 0.0 0.00 0.00 0.00 94 1016.6
20260505114419 48 81 0.0 0.0 0.00 0.00 0.00 93 1016.7
20260505113916 48 8 0.0 0.0 0.00 0.00 0.00 93 1016.9
20260505113413 48 40 0.0 1.0 0.00 0.00 0.00 93 1016.7
20260505112908 48 81 0.0 1.0 0.00 0.00 0.00 93 1016.7
20260505112406 48 41 2.0 2.0 0.00 0.00 0.00 93 1016.8
20260505111902 48 74 0.0 1.0 0.00 0.00 0.00 93 1016.7
20260505111357 48 90 0.0 0.0 0.00 0.00 0.00 93 1016.9
20260505110854 48 90 0.0 1.0 0.00 0.00 0.00 93 1016.9
20260505110351 48 74 0.0 1.0 0.00 0.00 0.00 93 1016.8
20260505101821 49 128 0.0 2.0 0.00 0.00 0.00 95 1016.4
20260505101317 48 90 1.0 2.0 0.00 0.00 0.00 95 1016.3
20260505100813 48 75 1.0 2.0 0.00 0.00 0.00 95 1016.3
20260505100309 48 81 0.0 0.0 0.00 0.00 0.00 94 1016.5
20260505095805 47 90 1.0 1.0 0.00 0.00 0.00 93 1016.3
20260505095304 47 66 0.0 0.0 0.00 0.00 0.00 93 1016.3
20260505094758 47 66 0.0 0.0 0.00 0.00 0.00 93 1016.2
20260505094255 48 26 0.0 0.0 0.00 0.00 0.00 93 1016.3
20260505093750 48 35 0.0 0.0 0.00 0.00 0.00 92 1016.0
20260505093249 49 90 0.0 1.0 0.00 0.00 0.00 93 1016.0
20260505092745 49 81 0.0 1.0 0.00 0.00 0.00 94 1016.1
20260505092238 49 105 0.0 1.0 0.00 0.00 0.00 94 1015.9
20260505091735 49 75 1.0 1.0 0.00 0.00 0.00 93 1016.1
20260505091233 49 81 0.0 1.0 0.00 0.00 0.00 93 1015.9
20260505090730 49 90 0.0 1.0 0.00 0.00 0.00 93 1016.0
20260505090229 49 99 0.0 0.0 0.00 0.00 0.00 93 1015.9
20260505085726 49 82 0.0 1.0 0.00 0.00 0.00 93 1016.1
20260505085224 49 103 0.0 1.0 0.00 0.00 0.00 94 1015.9
20260505084721 49 90 0.0 1.0 0.00 0.00 0.00 93 1015.7
20260505084220 49 74 0.0 1.0 0.00 0.00 0.00 93 1015.9
20260505083716 49 40 0.0 1.0 0.00 0.00 0.00 93 1015.7
20260505083213 49 99 0.0 0.0 0.00 0.00 0.00 93 1015.9
20260505082709 49 81 0.0 0.0 0.00 0.00 0.00 93 1015.8
20260505082207 49 81 0.0 0.0 0.00 0.00 0.00 92 1015.8
20260505081702 49 35 0.0 2.0 0.00 0.00 0.00 92 1015.7
20260505081200 50 157 0.0 0.0 0.00 0.00 0.00 92 1015.8
20260505080657 50 157 0.0 0.0 0.00 0.00 0.00 92 1015.7
20260505080152 50 66 0.0 0.0 0.00 0.00 0.00 91 1015.6
20260505075649 50 74 0.0 0.0 0.00 0.00 0.00 91 1015.6
20260505075146 50 74 0.0 0.0 0.00 0.00 0.00 91 1015.6
20260505074643 50 74 0.0 0.0 0.00 0.00 0.00 90 1015.4
20260505074139 51 74 0.0 1.0 0.00 0.00 0.00 90 1015.4
20260505073637 51 53 0.0 2.0 0.00 0.00 0.00 89 1015.3
20260505073135 52 20 1.0 1.0 0.00 0.00 0.00 89 1015.3
20260505072630 52 99 0.0 1.0 0.00 0.00 0.00 89 1015.2
20260505072127 52 90 0.0 1.0 0.00 0.00 0.00 89 1015.5
20260505071623 52 90 1.0 2.0 0.00 0.00 0.00 88 1015.1
20260505071121 52 81 0.0 2.0 0.00 0.00 0.00 88 1015.0
20260505070618 52 90 0.0 2.0 0.00 0.00 0.00 87 1015.2
20260505070114 53 29 2.0 2.0 0.00 0.00 0.00 87 1015.1
20260505065610 53 81 0.0 1.0 0.00 0.00 0.00 86 1015.1
20260505065107 54 81 0.0 1.0 0.00 0.00 0.00 85 1015.1
20260505064604 54 66 0.0 0.0 0.00 0.00 0.00 85 1014.9
20260505064102 54 81 0.0 2.0 0.00 0.00 0.00 85 1014.9
20260505063559 54 35 1.0 2.0 0.00 0.00 0.00 84 1014.8
20260505063055 55 71 1.0 2.0 0.00 0.00 0.00 84 1014.8
20260505062552 55 90 1.0 2.0 0.00 0.00 0.00 84 1014.7
20260505062049 55 90 1.0 1.0 0.00 0.00 0.00 84 1014.5
20260505061546 55 90 0.0 1.0 0.00 0.00 0.00 83 1014.5
20260505061044 55 83 1.0 2.0 0.00 0.00 0.00 83 1014.4
20260505060541 55 90 1.0 1.0 0.00 0.00 0.00 82 1014.3
20260505060038 55 66 2.0 2.0 0.00 0.00 0.00 82 1014.2
20260505055533 56 69 0.0 1.0 0.00 0.00 0.00 82 1014.2
20260505055030 56 81 0.0 1.0 0.00 0.00 0.00 81 1014.3
20260505054527 56 29 0.0 1.0 0.00 0.00 0.00 81 1014.1
20260505054026 56 74 0.0 1.0 0.00 0.00 0.00 80 1014.1
20260505053522 57 75 0.0 0.0 0.00 0.00 0.00 79 1014.0
20260505053019 57 81 0.0 1.0 0.00 0.00 0.00 78 1014.2
20260505052516 57 73 0.0 2.0 0.00 0.00 0.00 77 1014.0
20260505052014 58 75 1.0 2.0 0.00 0.00 0.00 77 1014.1
20260505051510 58 60 0.0 2.0 0.00 0.00 0.00 76 1013.9
20260505051009 58 29 1.0 2.0 0.00 0.00 0.00 76 1013.9
20260505050506 58 82 0.0 2.0 0.00 0.00 0.00 75 1014.0
20260505041433 61 20 0.0 2.0 0.00 0.00 0.00 68 1013.5
20260505040931 61 90 0.0 2.0 0.00 0.00 0.00 68 1013.3
20260505040428 62 60 0.0 2.0 0.00 0.00 0.00 67 1013.3
20260505035925 62 36 2.0 2.0 0.00 0.00 0.00 66 1013.4
20260505035421 62 71 0.0 2.0 0.00 0.00 0.00 66 1013.2
20260505034918 62 0 2.0 2.0 0.00 0.00 0.00 65 1013.1
20260505034414 63 12 0.0 2.0 0.00 0.00 0.00 64 1013.1
20260505033912 63 8 0.0 2.0 0.00 0.00 0.00 63 1012.8
20260505033408 63 23 2.0 2.0 0.00 0.00 0.00 63 1012.9
20260505032907 64 0 0.0 2.0 0.00 0.00 0.00 63 1012.6
20260505032402 64 18 0.0 2.0 0.00 0.00 0.00 62 1012.7
20260505031859 64 0 0.0 3.0 0.00 0.00 0.00 61 1012.8
20260505031356 65 0 2.0 3.0 0.00 0.00 0.00 61 1012.5
20260505030854 65 353 1.0 2.0 0.00 0.00 0.00 60 1012.6
20260505030344 66 6 0.0 2.0 0.00 0.00 0.00 58 1012.7
20260505025840 66 334 2.0 3.0 0.00 0.00 0.00 58 1012.7
20260505025338 67 348 2.0 2.0 0.00 0.00 0.00 57 1012.6
20260505024836 68 349 0.0 2.0 0.00 0.00 0.00 56 1012.3
20260505024334 68 352 0.0 2.0 0.00 0.00 0.00 55 1012.1
20260505023830 68 7 0.0 1.0 0.00 0.00 0.00 55 1012.2
20260505023327 69 7 0.0 0.0 0.00 0.00 0.00 55 1012.3
20260505022825 69 0 0.0 2.0 0.00 0.00 0.00 55 1012.3
20260505022321 69 356 0.0 2.0 0.00 0.00 0.00 54 1012.2
20260505021819 70 331 0.0 3.0 0.00 0.00 0.00 54 1012.1
20260505021315 70 7 0.0 2.0 0.00 0.00 0.00 53 1012.1
20260505020810 71 320 0.0 3.0 0.00 0.00 0.00 51 1012.2
20260505020301 71 270 0.0 2.0 0.00 0.00 0.00 51 1012.2
20260505015758 71 287 0.0 3.0 0.00 0.00 0.00 50 1012.3
20260505015254 71 337 0.0 5.0 0.00 0.00 0.00 50 1012.1
20260505014751 72 283 0.0 5.0 0.00 0.00 0.00 49 1012.2
20260505014244 72 0 3.0 3.0 0.00 0.00 0.00 47 1012.2
20260505013739 73 285 0.0 4.0 0.00 0.00 0.00 46 1012.1
20260505013237 73 297 0.0 2.0 0.00 0.00 0.00 47 1012.1
20260505012735 73 277 1.0 2.0 0.00 0.00 0.00 45 1012.5
20260505012232 74 270 1.0 3.0 0.00 0.00 0.00 45 1012.4
20260505011728 74 270 0.0 3.0 0.00 0.00 0.00 43 1012.1
20260505011225 74 352 0.0 5.0 0.00 0.00 0.00 45 1012.4
20260505010721 75 331 2.0 3.0 0.00 0.00 0.00 44 1012.2
20260505010217 75 281 2.0 2.0 0.00 0.00 0.00 43 1012.3
20260505005714 75 270 0.0 3.0 0.00 0.00 0.00 43 1012.3
20260505005211 75 248 2.0 3.0 0.00 0.00 0.00 44 1012.3
20260505004708 75 286 0.0 2.0 0.00 0.00 0.00 44 1012.3
20260505004204 75 283 2.0 3.0 0.00 0.00 0.00 45 1012.3
20260505003702 76 274 2.0 3.0 0.00 0.00 0.00 46 1012.1
20260505003159 76 249 1.0 2.0 0.00 0.00 0.00 48 1012.1
20260505002655 76 348 2.0 4.0 0.00 0.00 0.00 47 1012.2
20260505002153 76 292 0.0 3.0 0.00 0.00 0.00 46 1012.2
20260505001650 76 319 4.0 4.0 0.00 0.00 0.00 47 1012.1
20260505001148 77 337 3.0 4.0 0.00 0.00 0.00 46 1012.3
20260505000645 77 337 0.0 2.0 0.00 0.00 0.00 46 1012.0
20260505000143 77 309 0.0 3.0 0.00 0.00 0.00 47 1012.1
20260504235638 76 333 0.0 4.0 0.00 0.00 0.00 47 1012.2
20260504235129 76 303 0.0 4.0 0.00 0.00 0.00 47 1012.1
20260504234626 77 348 2.0 4.0 0.00 0.00 0.00 48 1012.0
20260504234124 77 283 2.0 3.0 0.00 0.00 0.00 47 1012.1
20260504233620 77 297 0.0 3.0 0.00 0.00 0.00 48 1012.0
20260504233115 77 300 0.0 4.0 0.00 0.00 0.00 47 1012.1
20260504232614 77 345 1.0 3.0 0.00 0.00 0.00 47 1012.1
20260504232110 77 306 1.0 3.0 0.00 0.00 0.00 49 1012.2
20260504231606 77 338 3.0 5.0 0.00 0.00 0.00 49 1012.2
20260504231103 77 345 0.0 4.0 0.00 0.00 0.00 48 1012.2
20260504230558 77 327 0.0 4.0 0.00 0.00 0.00 48 1012.3
20260504230053 78 301 0.0 3.0 0.00 0.00 0.00 48 1012.0
20260504225549 78 339 0.0 6.0 0.00 0.00 0.00 49 1012.2
20260504225046 77 337 4.0 4.0 0.00 0.00 0.00 48 1012.3
20260504224543 77 331 3.0 4.0 0.00 0.00 0.00 48 1012.3
20260504224040 78 0 0.0 4.0 0.00 0.00 0.00 48 1012.3
20260504223537 78 247 3.0 3.0 0.00 0.00 0.00 49 1012.3
20260504223033 78 294 0.0 2.0 0.00 0.00 0.00 49 1012.3
20260504222530 78 301 0.0 3.0 0.00 0.00 0.00 49 1012.5
20260504222027 78 334 2.0 3.0 0.00 0.00 0.00 50 1012.3
20260504221524 78 313 3.0 3.0 0.00 0.00 0.00 47 1012.4
20260504221021 78 245 2.0 5.0 0.00 0.00 0.00 47 1012.5
20260504220517 78 282 0.0 3.0 0.00 0.00 0.00 44 1012.5
20260504220015 78 315 0.0 4.0 0.00 0.00 0.00 47 1012.6
20260504215511 78 328 2.0 3.0 0.00 0.00 0.00 44 1012.6
20260504215009 78 285 1.0 4.0 0.00 0.00 0.00 46 1012.6
20260504214504 77 300 1.0 2.0 0.00 0.00 0.00 46 1012.5
20260504214001 77 270 2.0 3.0 0.00 0.00 0.00 47 1012.6
20260504213457 77 325 1.0 4.0 0.00 0.00 0.00 47 1012.7
20260504212955 78 328 2.0 3.0 0.00 0.00 0.00 48 1012.5
20260504212450 77 297 2.0 3.0 0.00 0.00 0.00 49 1012.7
20260504211948 77 290 0.0 4.0 0.00 0.00 0.00 48 1012.8
20260504211444 77 0 0.0 3.0 0.00 0.00 0.00 48 1012.8
20260504210942 77 323 0.0 2.0 0.00 0.00 0.00 48 1012.7
20260504210438 77 334 0.0 3.0 0.00 0.00 0.00 49 1012.7
20260504205936 76 283 1.0 3.0 0.00 0.00 0.00 49 1013.1
20260504205433 76 297 0.0 3.0 0.00 0.00 0.00 50 1013.1
20260504204931 77 301 2.0 3.0 0.00 0.00 0.00 50 1013.3
20260504204429 77 294 0.0 2.0 0.00 0.00 0.00 49 1012.9
20260504203928 77 353 0.0 3.0 0.00 0.00 0.00 49 1013.2
20260504203425 77 346 2.0 2.0 0.00 0.00 0.00 51 1013.1
20260504202921 77 294 2.0 2.0 0.00 0.00 0.00 51 1013.1
20260504202418 76 7 1.0 3.0 0.00 0.00 0.00 52 1013.2
20260504201915 76 337 0.0 3.0 0.00 0.00 0.00 51 1013.3
20260504201412 76 340 0.0 3.0 0.00 0.00 0.00 51 1013.3
20260504200909 76 297 1.0 2.0 0.00 0.00 0.00 50 1013.2
20260504200406 76 236 3.0 3.0 0.00 0.00 0.00 49 1013.1
20260504195903 76 287 2.0 3.0 0.00 0.00 0.00 50 1013.3
20260504195358 75 270 0.0 2.0 0.00 0.00 0.00 51 1013.2
20260504194855 75 339 0.0 2.0 0.00 0.00 0.00 49 1013.3
20260504194351 75 257 1.0 3.0 0.00 0.00 0.00 50 1013.6
20260504193847 75 300 0.0 2.0 0.00 0.00 0.00 50 1013.3
20260504193344 74 3 3.0 3.0 0.00 0.00 0.00 52 1013.3
20260504192843 74 327 2.0 3.0 0.00 0.00 0.00 51 1013.5
20260504192341 74 342 1.0 3.0 0.00 0.00 0.00 52 1013.4
20260504191839 73 348 0.0 2.0 0.00 0.00 0.00 50 1013.5
20260504191337 73 345 2.0 2.0 0.00 0.00 0.00 51 1013.5
20260504190832 73 337 0.0 2.0 0.00 0.00 0.00 52 1013.5
20260504190328 73 350 3.0 3.0 0.00 0.00 0.00 51 1013.7
20260504185825 73 21 0.0 3.0 0.00 0.00 0.00 52 1013.7
20260504185322 73 12 2.0 2.0 0.00 0.00 0.00 52 1013.9
20260504184818 73 294 0.0 3.0 0.00 0.00 0.00 53 1013.8
20260504184314 72 346 0.0 3.0 0.00 0.00 0.00 51 1013.9
20260504183809 72 144 0.0 2.0 0.00 0.00 0.00 49 1013.8
20260504183307 72 0 0.0 3.0 0.00 0.00 0.00 50 1013.8
20260504182805 72 221 2.0 2.0 0.00 0.00 0.00 50 1013.8
20260504182304 71 270 0.0 2.0 0.00 0.00 0.00 51 1013.9
20260504181759 71 286 1.0 3.0 0.00 0.00 0.00 52 1013.9
20260504181256 71 339 0.0 3.0 0.00 0.00 0.00 53 1013.9
20260504180755 71 225 4.0 4.0 0.00 0.00 0.00 53 1013.8
20260504180254 71 346 2.0 2.0 0.00 0.00 0.00 54 1013.9
20260504175751 70 300 0.0 0.0 0.00 0.00 0.00 53 1014.0
20260504175247 70 311 0.0 2.0 0.00 0.00 0.00 54 1013.9
20260504174745 70 165 0.0 1.0 0.00 0.00 0.00 56 1013.9
20260504174243 70 8 0.0 2.0 0.00 0.00 0.00 56 1013.9
20260504173739 69 279 0.0 0.0 0.00 0.00 0.00 57 1013.9
20260504173236 69 74 0.0 2.0 0.00 0.00 0.00 58 1014.0
20260504172733 69 41 0.0 2.0 0.00 0.00 0.00 56 1014.0
20260504172230 69 145 0.0 1.0 0.00 0.00 0.00 58 1013.8
20260504171726 68 279 0.0 2.0 0.00 0.00 0.00 60 1013.8
20260504171223 68 8 0.0 2.0 0.00 0.00 0.00 61 1013.7
20260504170720 68 35 0.0 2.0 0.00 0.00 0.00 58 1013.8
20260504170217 67 90 0.0 0.0 0.00 0.00 0.00 61 1013.6
20260504160136 63 66 1.0 1.0 0.00 0.00 0.00 69 1013.5
20260504151103 57 90 0.0 0.0 0.00 0.00 0.00 79 1013.4
20260504150601 56 81 0.0 1.0 0.00 0.00 0.00 80 1013.5
20260504141026 53 90 0.0 0.0 0.00 0.00 0.00 91 1012.9
20260504140523 53 78 0.0 2.0 0.00 0.00 0.00 90 1013.1
20260504130447 51 66 1.0 1.0 0.00 0.00 0.00 89 1012.3